Regional Weather Roundup
Issued by NWS

Home | Current Version | Previous Version | Graphics & Text | Print | Product List | Glossary On
Versions: 1 2 3 4 5 6 7 8 9 10 11 12 13 14 15 16 17 18 19 20 21 22 23 24 25 26 27 28 29 30 31 32 33 34 35 36 37 38 39 40 41 42 43 44 45 46 47 48 49 50
000
ASUS45 KCYS 020910
RWRWY

WYOMING REGIONAL WEATHER ROUNDUP
NATIONAL WEATHER SERVICE CHEYENNE WY
300 AM MDT THU JUL 02 2015

NOTE:  "FAIR" INDICATES FEW OR NO CLOUDS BELOW 12,000 FEET
WITH NO SIGNIFICANT WEATHER AND/OR OBSTRUCTIONS TO VISIBILITY.

WYZ001-021000-
YELLOWSTONE NATIONAL PARK

CITY           SKY/WX    TMP DP  RH WIND       PRES   REMARKS
LK YELLOWSTONE   N/A     48  40  73 CALM      30.37R
W YELLOWSTONE  NOT AVBL

$$
WYZ002>013-054>058-071-098>099-021000-
NORTHERN WYOMING

CITY           SKY/WX    TMP DP  RH WIND       PRES   REMARKS
JACKSON        MOCLDY    57  46  67 N5        30.24R
CODY           FAIR      64  45  48 N5        30.21S
GREYBULL       MOCLDY    71  49  45 W16       30.07R
WORLAND        CLOUDY    70  53  54 VRB6      30.11R
SHERIDAN       FAIR      57  53  86 SW3       30.14R
BUFFALO        FAIR      61  55  81 W3        30.20R
GILLETTE       CLOUDY    62  58  86 W8        30.14F
NEWCASTLE      NOT AVBL

$$
WYZ014>020-022>026-101>103-021000-
CENTRAL WYOMING

CITY           SKY/WX    TMP DP  RH WIND       PRES   REMARKS
BIG PINEY      FAIR      57  37  47 CALM      30.27S
PINEDALE       FAIR      52  41  66 W9        30.29S
DUBOIS         NOT AVBL
LANDER         FAIR      67  49  52 W8        30.18R
RIVERTON       FAIR      66  52  60 E12       30.19R
CASPER         MOCLDY    62  58  86 E6        30.21R
DOUGLAS        TSTM      62  60  93 SW7       30.19F FOG

$$
WYZ021-027>030-104>119-021000-
SOUTHERN WYOMING

CITY           SKY/WX    TMP DP  RH WIND       PRES   REMARKS
EVANSTON       FAIR      62  41  46 SE8       30.28S
FORT BRIDGER   SUNNY     66  39  37 W7        30.30R
ROCK SPRINGS   FAIR      63  49  60 NE9       30.24R
RAWLINS        FAIR      57  52  83 NW5       30.25R
LARAMIE        FAIR      53  51  93 NE13G23   30.28R
CHEYENNE       MOCLDY    61  53  75 N22G29    30.22R
TORRINGTON     CLOUDY    61  57  87 E17       30.14R

$$



USA.gov is the U.S. government's official web portal to all federal, state and local government web resources and services.